User: anonymous   Login
Location: Belvedere Heights
(33.9836°N, 117.3109°W)
Time: 08:37:55
(UTC+00:00)
Language:

POLYITAN 1 - Orbit

View from above orbital plane
View from above orbital plane
View from above satellite
View from above satellite

Ground track
Ground track

The orbit data is extracted from the following two-line orbital elements,

1 40042U 14033AJ  24146.44052048  .00011533  00000-0  88114-3 0  9993
2 40042  98.0704 109.7990 0012938 203.3108 156.7530 15.02062619539427
Epoch (UTC): 25 May 2024 10:34:20
Eccentricity: 0.0012938
inclination: 98.0704°
perigee height: 551 km
apogee height: 569 km
right ascension of ascending node: 109.7990°
argument of perigee: 203.3108°
revolutions per day: 15.02062619
mean anomaly at epoch: 156.7530°
orbit number at epoch: 53942

The dashed part of the orbit path shows where the satellite is in the earth's shadow,  

DLR